Regional Weather Roundup
Issued by NWS Midland/Odessa, TX

Home | Current Version | Previous Version | Text Only | Print | Product List | Glossary On
Versions: 1 2 3 4 5 6 7 8 9 10 11 12 13 14 15 16 17 18 19 20 21 22 23 24 25 26 27 28 29 30 31 32 33 34 35 36 37 38 39 40 41 42 43 44 45 46 47 48 49 50
288
ASUS44 KMAF 171610
RWRMAF
MIDLAND AREA WEATHER ROUNDUP
NATIONAL WEATHER SERVICE MIDLAND TX
1000 AM CST TUE JAN 17 2017

...IN SOUTHWEST TEXAS AND SOUTHEAST NEW MEXICO...

CITY           SKY/WX    TMP DP  RH WIND       PRES   REMARKS
ALPINE         CLOUDY    37  36  99 E10       30.20R VSB<1/4 WCI  29
ANDREWS        PTSUNNY   40  36  87 NE12      30.20R WCI  32
ARTESIA        CLOUDY    41  36  81 N7        30.22R WCI  36
BIG SPRING     CLOUDY    40  35  81 NE15G21   30.22R WCI  32
CARLSBAD       CLOUDY    41  36  82 N7        30.20R WCI  36
DRYDEN           N/A     49  41  74 N20       30.09R
FORT STOCKTON  CLOUDY    39  37  92 N8        30.18R WCI  33
GUAD PASS      NOT AVBL
HOBBS          PTSUNNY   36  36 100 N10       30.21R WCI  28
MARFA          CLOUDY    41  37  86 NE9       30.14R WCI  35
MIDLAND AIRPK  MOSUNNY   40  36  85 NE8       30.20R WCI  35
MIDLAND INTL   PTSUNNY   41  35  79 NE14      30.18R WCI  33
ODESSA         MOSUNNY   41  34  76 NE16      30.19R WCI  33
PECOS          CLOUDY    41  35  77 N9        30.21R WCI  35
PRESIDIO       FAIR      54  38  53 S5        30.07R
SEMINOLE       SUNNY     40  34  78 NE12      30.22R WCI  33
SNYDER         MOSUNNY   40  34  80 N15G22    30.20F WCI  32
WINK           PTSUNNY   42  35  76 NE10      30.19R WCI  36
$$
...OTHER STATIONS IN TEXAS...

CITY           SKY/WX    TMP DP  RH WIND       PRES   REMARKS
ABILENE        MOSUNNY   41  36  82 N9        30.21S WCI  35
AMARILLO       CLOUDY    39  33  79 CALM      30.20R
AUSTIN         LGT RAIN  52  49  89 N16       30.17R
BROWNSVILLE    CLOUDY    76  71  85 SE12      30.02R
CORPUS CHRISTI CLOUDY    74  71  91 SE16      30.04R
DALLAS FTW     PTSUNNY   49  38  65 N10       30.23R
DEL RIO        CLOUDY    60  53  77 NE5       30.03R
EL PASO        PTSUNNY   43  35  73 N13       30.10R WCI  36
HOUSTON INT    LGT RAIN  60  57  89 N10       30.11R
LUBBOCK        PTSUNNY   38  33  82 N7        30.21R WCI  33
SAN ANGELO     CLOUDY    45  36  70 NE17      30.18R WCI  38
SAN ANTONIO    CLOUDY    55  48  77 N9        30.12R
WACO           CLOUDY    49  40  71 N12       30.20R
WICHITA FALLS  NOT AVBL
$$
...OTHER LOCATIONS IN NEW MEXICO...

CITY           SKY/WX    TMP DP  RH WIND       PRES   REMARKS
ALAMAGORDO     PTSUNNY   41  36  81 CALM      30.14R
ALBUQUERQUE    MOSUNNY   39  36  89 NW7       30.16R WCI  34
CANNON AFB     MOSUNNY   34  34 100 NE9       30.19S WCI  27
CLOVIS         PTSUNNY   36  30  80 N5        30.20R WCI  32
HOLLOMAN AFB   CLOUDY    40  38  94 E5        30.16R WCI  36
ROSWELL        CLOUDY    43  32  65 N3        30.21R
RUIDOSO        FOG       30  30 100 SE7       30.20R VSB 3/4 WCI  23
SANTA FE       CLOUDY    34  29  82 SE5       30.16R WCI  30
TRUTH OR CONSE MOSUNNY   40  36  86 N10       30.13R WCI  33
TUCUMCARI      SUNNY     38  34  85 S6        30.19R WCI  33
$$




USA.gov is the U.S. government's official web portal to all federal, state and local government web resources and services.